Total_Precipitation_Accumulation
0.03 0.22 0.47 0.85 1.48 4.26 5.44 5.98 8.59 6.00 6.09 4.96 5.17 6.21 6.16 3.58 3.54 4.46 3.95 2.40 3.58 2.11 2.65 1.79 1.51 0.71 2.96 1.62 1.54 0.88 0.80 1.60 0.63 3.15 3.15 0.99 0.43 0.59 0.91 0.67 0.85 0.96 0.89 0.87 1.27 1.58 1.77 1.49 1.44 1.97 2.00 1.42 1.43 1.44 1.54 1.65 1.11 0.99 1.14 1.46 0.95 0.99 0.95 0.74 0.98 1.19 1.09 1.14 0.92 1.04 1.22 1.32 1.13 0.85 0.82 1.09 1.01 0.94 1.67 1.30 1.07 1.34 1.25 0.86 1.15 1.38 1.48 1.57 1.55 1.41 1.61 1.49 1.44 1.44 1.13 1.40 1.42
0.12 0.27 0.53 1.33 3.33 8.16 8.89 4.82 4.75 5.21 4.95 5.10 4.43 5.24 4.69 4.17 5.22 3.42 3.77 5.10 2.57 2.65 2.08 1.87 1.59 1.29 0.91 0.67 0.61 0.69 0.54 0.42 0.35 0.29 0.53 0.49 0.69 0.74 0.59 0.64 0.79 0.65 0.64 0.77 0.96 1.08 1.14 1.59 1.18 1.47 1.64 1.19 1.09 1.84 1.81 1.44 1.18 1.33 0.95 0.66 0.70 0.70 0.62 0.88 0.87 1.04 1.05 1.23 1.23 1.31 1.20 0.96 1.06 0.95 1.07 1.23 1.01 1.28 1.45 1.30 1.43 1.33 1.15 1.07 1.40 1.01 1.49 1.40 1.31 1.42 1.60 1.40 1.50 1.83 1.44 1.83 1.99
0.21 0.25 0.80 1.20 3.88 3.62 6.71 4.89 9.36 5.44 5.97 5.55 5.28 7.12 5.12 4.81 5.34 3.36 4.15 4.00 2.31 2.57 1.89 1.81 1.37 1.34 0.52 0.36 0.99 1.57 1.45 0.31 0.20 0.23 0.64 0.88 0.96 2.01 0.74 0.62 0.64 0.61 0.50 0.71 0.85 1.16 1.26 1.60 0.87 1.06 1.14 1.06 1.18 1.31 1.39 1.49 0.85 1.00 0.70 0.56 0.78 0.72 0.66 0.95 1.11 1.14 1.07 1.35 1.33 1.76 1.35 1.24 1.12 1.12 1.16 1.28 1.37 1.25 1.12 1.38 1.71 1.68 1.26 1.21 1.15 1.32 1.83 1.31 1.50 1.48 1.90 1.52 1.88 1.55 1.50 1.76 2.42
0.34 0.32 1.83 1.68 8.09 4.78 6.87 7.16 4.74 5.39 5.89 5.30 5.13 6.42 6.26 5.37 4.40 3.77 3.50 2.05 2.61 2.77 1.15 1.15 1.72 1.01 0.88 1.20 0.84 0.58 0.68 1.12 0.26 0.16 0.70 0.99 0.77 0.51 0.69 0.84 0.73 0.45 0.69 1.07 1.27 0.96 1.10 0.99 0.92 1.56 1.41 1.04 1.00 1.01 1.32 0.98 0.79 0.82 0.63 0.53 0.64 0.63 0.83 1.00 0.92 1.05 1.17 1.09 1.19 1.16 1.46 1.35 1.33 1.11 1.25 1.42 1.53 1.60 1.69 1.44 1.90 1.50 1.40 1.66 1.17 1.92 1.42 1.48 1.73 1.66 1.82 1.53 1.72 1.45 1.44 1.81 1.84
0.44 0.63 0.92 3.00 5.03 8.86 5.90 6.31 5.88 4.71 6.74 5.72 6.56 6.12 6.78 5.97 4.17 3.68 3.33 2.94 2.32 2.04 1.61 0.77 0.51 0.70 1.00 0.78 1.12 2.11 1.18 0.47 0.30 0.18 0.35 0.64 0.42 0.48 0.66 0.39 0.40 1.16 1.04 1.04 1.52 1.23 1.43 0.85 0.80 1.32 1.12 1.06 1.21 1.12 1.29 1.04 0.69 0.69 1.02 1.10 0.88 0.82 0.86 0.85 0.75 0.82 0.99 1.06 1.17 1.14 1.63 1.43 1.60 1.48 1.63 1.68 1.46 1.24 1.80 1.80 1.57 1.69 1.84 1.83 1.71 1.74 1.56 1.67 1.76 1.70 1.89 1.75 1.47 1.77 1.72 2.00 1.98
0.61 1.19 2.33 2.98 9.15 4.67 4.33 5.79 6.73 5.03 5.36 6.59 6.17 6.66 5.22 4.50 5.03 3.06 2.84 3.24 2.61 2.36 1.69 1.21 1.16 0.51 0.58 0.43 0.57 1.10 0.70 1.48 0.68 0.31 0.28 0.87 0.48 0.49 0.39 0.30 0.63 1.28 1.13 0.76 1.08 1.19 1.45 1.19 1.34 1.13 0.91 1.09 1.04 1.04 1.02 0.87 0.74 1.22 1.14 1.50 1.00 1.25 1.33 1.31 0.87 0.90 1.00 0.82 1.07 1.55 1.17 1.34 1.54 1.61 2.12 1.96 1.57 1.85 1.58 1.67 1.71 1.56 1.51 1.95 1.84 1.66 1.55 1.75 1.72 1.48 1.57 1.65 1.56 1.65 2.26 1.96 1.92
1.63 2.24 4.10 4.97 4.99 5.39 7.02 5.47 4.05 4.14 4.68 6.08 6.01 6.45 5.88 4.35 3.80 3.52 3.37 3.11 2.56 2.89 1.85 1.58 0.50 0.30 0.85 0.42 0.44 0.26 0.26 0.53 1.07 0.35 0.37 0.33 0.42 0.27 0.28 0.51 0.83 0.88 0.85 0.87 1.16 1.39 1.58 1.63 1.30 1.36 1.36 1.01 1.04 0.94 1.03 0.74 0.85 0.95 1.09 1.22 1.00 1.23 1.65 1.39 0.82 0.95 0.88 0.92 1.08 1.44 1.24 1.09 1.17 1.66 1.73 1.71 1.57 1.26 1.74 1.54 1.56 1.49 1.32 1.53 1.74 1.64 1.39 1.23 1.44 1.44 1.45 1.59 1.90 1.73 1.88 2.05 2.19
0.89 3.30 5.28 5.28 6.68 4.44 6.44 4.98 4.75 4.50 4.15 6.22 4.82 4.78 5.00 5.21 4.20 4.28 3.32 4.32 2.30 2.24 1.95 1.30 1.04 1.29 1.95 0.38 1.78 0.62 0.28 0.27 0.44 0.14 0.15 0.19 0.16 0.30 0.49 0.43 0.66 0.81 1.26 1.07 1.06 1.34 1.44 1.41 1.31 1.17 0.95 0.82 1.05 0.98 0.99 0.91 1.11 1.05 0.94 1.20 1.17 1.07 1.55 1.36 1.32 1.18 1.04 1.02 1.05 1.18 1.24 1.10 1.48 1.27 1.09 1.80 1.56 1.47 1.49 1.39 1.28 1.15 1.57 1.49 1.51 1.84 1.29 1.16 1.39 2.03 1.94 1.85 1.72 1.51 1.59 2.20 2.21
2.71 1.75 3.20 4.60 6.87 4.79 4.67 4.91 4.73 3.95 4.04 4.20 4.06 4.97 5.14 4.55 4.07 3.62 3.46 2.91 2.31 2.08 2.80 1.53 0.95 1.84 1.67 1.09 1.33 1.01 0.63 0.26 0.38 0.16 0.12 0.13 0.23 0.29 0.59 0.42 0.78 0.72 0.88 1.02 1.18 1.22 1.90 1.30 1.19 1.23 1.17 1.37 0.93 1.25 1.12 1.41 1.51 1.23 1.11 1.24 1.09 1.07 1.38 1.22 1.34 1.35 1.14 1.13 1.17 1.36 1.52 1.18 1.15 1.27 1.19 1.33 1.55 1.55 1.30 1.03 1.27 1.20 1.29 1.49 1.47 1.60 1.58 1.29 1.78 1.69 1.58 1.61 1.64 1.29 1.68 1.94 1.65
3.22 1.54 5.79 4.55 3.82 5.68 4.08 4.08 5.11 5.59 6.31 3.58 3.73 4.09 5.24 4.34 4.26 4.23 3.48 3.20 3.17 2.49 1.83 1.36 0.83 1.93 0.81 1.48 1.33 1.58 1.00 0.37 0.13 0.18 0.12 0.19 0.24 0.30 0.36 0.43 0.40 0.55 0.88 0.82 1.02 1.33 1.13 1.53 1.21 1.43 1.71 1.54 1.30 1.23 1.23 1.13 1.45 1.58 1.21 1.27 1.60 1.25 1.31 1.18 1.46 1.60 1.35 1.17 1.50 1.34 1.20 1.32 1.14 1.01 1.15 1.33 1.29 1.38 1.13 1.17 0.99 1.16 1.01 1.18 1.40 1.60 1.27 1.28 1.56 2.17 1.53 1.34 1.41 1.18 1.30 1.41 1.55
4.47 3.18 3.26 4.57 4.43 3.85 4.70 4.00 4.89 3.63 4.04 3.39 3.85 3.70 4.85 4.40 3.89 4.72 4.05 3.41 2.93 2.70 1.78 0.66 0.78 1.01 0.77 1.78 1.88 1.44 1.13 0.38 0.21 0.21 0.19 0.17 0.20 0.20 0.70 0.43 0.56 0.56 0.78 0.75 1.29 1.54 1.05 1.47 1.45 1.84 1.79 1.29 1.27 1.29 1.31 1.26 1.62 1.39 1.02 1.13 1.68 1.83 1.29 1.57 1.63 1.41 1.39 1.51 1.63 1.32 1.31 1.35 1.56 1.14 1.18 1.46 1.59 1.29 1.20 1.15 0.92 0.98 0.98 1.16 1.55 1.11 1.21 1.27 1.30 1.73 1.38 1.18 1.22 1.20 1.79 1.45 1.44
2.34 3.18 3.81 4.89 4.56 4.39 4.36 4.63 4.52 4.98 4.35 5.17 4.46 4.60 3.17 3.93 3.25 3.79 3.08 3.10 2.06 1.85 2.51 1.11 2.93 0.90 1.81 1.12 1.30 1.81 0.86 0.79 1.01 0.34 0.19 0.27 0.29 0.25 0.32 0.33 0.51 0.78 0.55 0.89 0.94 1.01 1.49 1.89 1.40 2.18 1.86 1.86 1.60 1.33 1.49 1.34 1.49 1.29 1.46 1.24 1.25 1.72 1.63 1.30 1.20 1.53 1.33 1.50 1.43 1.45 1.27 1.33 1.31 1.20 1.34 1.35 1.55 1.26 1.39 1.24 1.01 1.06 1.04 1.37 1.51 1.00 1.07 1.24 1.28 1.41 1.33 1.13 1.24 1.22 1.61 1.30 1.12
2.04 3.03 5.33 4.29 3.88 4.37 4.05 4.23 4.92 4.79 4.23 5.13 5.74 3.23 2.68 2.90 4.09 3.45 3.02 2.61 2.68 2.24 2.11 1.83 1.11 1.03 2.16 1.86 1.41 1.46 1.02 0.75 0.62 0.17 0.28 0.20 0.29 0.22 0.38 0.40 0.46 0.65 0.67 0.76 0.88 1.52 1.28 1.50 1.47 2.08 1.98 2.36 2.11 1.66 1.79 1.86 1.43 1.30 1.48 1.35 1.66 1.42 1.62 1.77 1.45 1.60 1.32 1.51 1.50 1.56 1.29 1.46 1.85 1.16 1.02 1.04 1.11 1.30 1.24 1.27 1.18 1.03 1.10 1.14 1.10 0.96 1.22 1.03 1.19 1.61 1.22 1.15 1.55 1.50 1.97 1.78 1.36
1.01 2.35 3.35 5.02 3.11 4.60 4.89 5.28 4.49 4.59 5.20 4.51 4.49 3.01 2.87 3.08 3.27 3.52 2.26 2.95 2.19 3.04 2.48 1.59 1.45 1.05 1.86 0.97 1.98 1.69 1.04 0.86 0.56 0.25 0.17 0.40 0.49 0.50 0.38 0.32 0.39 0.60 0.69 1.11 1.37 1.21 1.80 1.70 1.85 1.60 2.10 2.37 3.20 2.40 2.46 1.89 1.49 1.74 1.80 1.26 1.44 1.65 1.67 1.68 1.78 1.58 1.55 1.47 1.50 1.50 1.79 1.82 1.73 1.30 1.33 0.87 1.31 1.36 1.08 1.13 1.12 1.07 1.05 1.02 1.17 1.33 0.82 1.09 1.44 1.40 1.44 1.22 1.55 1.53 1.68 1.49 1.26
2.56 1.90 4.02 3.36 4.18 3.22 3.38 4.84 3.54 3.44 6.92 4.85 3.01 3.57 3.00 3.35 3.32 2.30 2.97 2.34 2.28 1.55 1.39 1.31 1.56 1.33 3.00 1.17 1.25 1.02 0.41 1.19 0.54 0.52 0.43 0.47 0.43 0.54 0.58 0.35 0.46 0.53 0.75 1.17 1.18 1.73 2.03 2.03 1.56 1.66 2.27 1.93 2.15 2.51 2.95 2.49 2.16 1.93 1.84 1.82 1.75 1.64 1.37 1.54 1.78 1.83 2.03 1.63 1.72 1.78 2.25 1.96 1.61 1.51 1.05 0.92 0.95 0.97 1.07 1.06 1.12 1.09 1.10 0.82 1.05 0.96 1.22 1.37 1.15 1.34 1.46 1.47 1.54 1.83 1.66 1.29 1.17
1.55 1.99 3.85 4.83 3.79 4.49 2.76 3.37 3.69 3.44 4.41 4.58 3.48 3.08 2.94 2.06 1.98 2.53 1.78 2.96 1.58 1.51 1.39 2.65 0.66 2.76 1.24 1.47 1.30 0.58 0.37 0.84 0.64 1.25 0.50 0.69 0.70 0.52 0.50 0.48 0.56 0.70 1.49 1.47 1.55 1.75 1.96 1.91 1.84 1.66 1.89 1.47 2.04 1.97 2.42 1.96 2.19 1.96 2.29 1.87 2.15 2.19 1.53 1.69 1.52 1.67 1.79 1.93 1.84 1.74 2.10 1.95 1.74 1.09 1.33 0.94 1.32 1.19 1.37 1.34 1.07 1.04 1.00 1.04 0.94 0.97 1.11 1.03 1.36 1.57 1.76 1.67 1.50 1.70 1.65 1.19 1.25
0.31 1.31 2.97 3.92 4.46 3.02 3.02 2.79 2.20 5.83 3.33 3.12 2.94 3.31 2.91 2.97 1.91 2.53 1.72 1.37 1.42 1.17 1.34 0.71 1.88 0.99 1.89 1.38 1.08 0.23 0.27 0.80 1.18 1.58 0.95 0.60 0.84 0.83 1.00 0.94 0.77 0.99 1.11 0.97 1.50 1.79 2.29 1.90 1.55 1.60 1.68 1.52 1.55 2.16 1.95 1.76 1.83 2.11 2.18 2.22 2.08 1.97 1.64 1.69 1.53 1.54 2.03 1.99 1.67 1.98 1.52 1.32 1.30 1.44 1.23 1.42 0.77 1.32 1.08 1.18 1.13 0.89 0.94 1.22 1.01 1.17 1.05 1.40 1.63 1.60 1.58 1.65 1.62 1.60 1.64 1.50 1.56
1.18 2.78 3.87 4.10 3.92 3.89 2.11 2.89 2.34 2.71 4.05 2.47 2.22 2.35 2.99 2.44 1.63 1.75 2.11 1.67 1.91 1.05 1.40 0.54 0.68 0.77 0.97 1.27 1.22 0.99 0.34 0.51 0.83 1.32 1.08 0.44 0.58 0.65 0.80 0.75 0.67 0.80 1.08 1.22 1.59 1.32 1.47 1.44 1.42 1.55 1.80 1.74 1.76 1.27 1.20 1.58 2.09 2.24 2.13 2.75 2.09 1.96 1.66 1.85 1.67 1.52 1.74 1.85 2.17 1.92 1.51 1.22 1.09 1.59 1.27 0.96 1.24 0.99 1.08 0.80 0.77 0.92 1.18 0.76 1.29 1.16 1.39 1.53 1.64 1.47 1.68 1.44 1.22 1.05 1.22 1.96 2.22
0.77 1.71 3.13 4.14 2.88 2.72 1.86 1.99 1.47 3.36 3.56 2.40 2.91 2.27 2.88 2.51 2.21 1.20 2.13 1.67 1.78 1.34 1.18 1.19 1.04 0.78 1.06 1.05 1.39 1.52 0.74 0.78 0.71 1.15 0.93 0.35 0.38 0.25 0.31 0.40 0.51 0.80 1.15 1.01 1.11 1.01 0.85 1.02 1.02 1.25 1.48 1.44 1.22 1.57 1.13 1.55 1.53 2.02 2.09 1.98 2.35 2.38 2.21 1.96 1.55 1.59 1.73 1.46 1.42 1.54 1.87 1.25 0.98 0.99 1.09 0.53 0.78 0.59 0.46 0.54 0.67 0.93 0.83 0.88 1.30 1.14 1.23 1.48 1.89 1.99 1.90 1.53 1.49 1.23 1.70 2.23 1.89
0.59 0.95 2.14 1.78 1.34 2.02 2.04 1.78 1.39 1.59 1.94 2.71 2.02 1.70 2.92 2.07 1.99 1.60 2.42 1.32 1.10 1.88 1.91 1.33 1.19 0.88 0.91 0.97 0.90 1.13 1.41 0.86 0.79 0.89 2.13 1.10 1.03 0.59 0.71 0.33 0.52 0.49 0.42 0.54 0.56 0.97 0.96 0.90 0.93 0.85 1.22 1.25 1.16 1.24 1.49 1.08 1.91 2.12 1.73 2.11 1.80 1.58 1.55 1.51 1.44 1.40 1.68 1.41 1.14 1.29 1.07 1.03 0.98 1.05 0.66 0.45 0.58 0.78 0.92 0.67 0.82 0.84 0.72 0.71 0.93 1.82 1.51 1.39 1.76 1.49 1.11 1.08 1.29 1.79 2.23 2.29 2.64
0.57 0.72 1.82 1.03 0.92 2.23 1.77 1.85 1.67 1.28 1.86 2.18 2.00 1.38 1.93 2.08 2.73 2.08 2.10 1.85 1.84 2.07 1.81 1.18 1.29 0.85 0.74 0.91 0.83 1.19 1.18 1.51 1.02 1.13 1.49 1.30 1.13 0.83 0.28 0.36 0.52 0.41 0.36 0.32 0.50 0.46 0.59 0.68 0.63 1.19 0.95 1.07 1.35 1.86 1.48 1.30 1.49 1.95 1.94 1.66 1.44 1.40 1.08 0.75 0.84 1.03 1.27 1.49 1.37 1.68 0.83 0.88 0.82 0.56 0.60 0.54 0.65 0.61 0.85 0.90 1.22 1.49 1.29 1.34 0.59 1.79 2.00 2.27 1.75 1.87 2.55 2.10 2.47 2.67 2.68 3.06 2.77
0.04 0.48 0.66 0.89 1.08 1.95 1.17 1.34 0.99 0.99 1.63 2.02 1.91 2.02 2.80 1.34 1.93 2.37 3.32 4.58 2.31 2.90 0.95 0.77 0.75 0.95 0.88 0.58 0.54 1.00 1.20 1.52 1.22 1.32 1.11 1.33 0.55 0.88 0.80 1.01 0.53 0.33 0.22 0.29 0.30 0.44 0.49 0.44 0.62 0.55 0.70 0.95 0.96 1.30 1.10 1.16 0.92 1.70 2.16 1.81 1.27 1.30 0.94 0.63 0.72 0.99 1.27 1.45 1.39 1.18 0.94 0.63 0.55 0.42 0.46 0.47 0.45 0.48 0.47 0.71 1.06 1.36 1.02 1.19 1.61 1.98 1.58 1.41 2.01 2.04 2.63 1.93 2.35 2.93 2.16 2.68 2.14
0.60 0.24 0.21 0.25 0.52 0.96 1.26 1.34 0.79 1.03 1.64 1.58 2.31 2.75 1.70 2.23 3.24 2.12 2.03 3.59 2.18 1.35 0.71 0.39 0.27 0.45 0.65 1.00 0.91 0.95 1.86 1.30 1.52 2.37 1.92 1.51 1.75 0.87 0.95 0.66 0.44 0.43 0.29 0.28 0.27 0.29 0.26 0.41 0.45 0.59 0.98 0.77 0.66 0.95 1.38 1.39 1.40 1.97 1.41 1.40 1.21 0.84 1.05 0.84 1.01 0.74 0.79 0.68 1.10 0.79 0.74 0.81 0.57 0.36 0.30 0.32 0.45 0.45 0.29 0.40 0.81 0.62 1.05 1.49 1.96 1.52 1.27 1.46 1.67 1.65 1.43 2.29 1.83 2.04 2.74 1.97 2.43
0.01 0.51 0.14 0.23 0.22 0.64 1.00 1.91 1.59 2.47 2.65 2.61 2.56 1.55 2.04 2.51 2.72 1.92 2.26 1.25 1.00 0.91 0.57 0.57 0.22 0.48 0.36 0.57 0.77 1.44 1.31 2.41 2.53 2.92 3.00 2.59 3.00 1.82 1.70 1.10 0.61 0.58 0.43 0.30 0.27 0.30 0.39 0.42 0.42 0.44 0.58 0.60 0.89 0.89 1.28 1.05 1.29 1.45 1.17 1.24 1.83 1.42 1.50 1.07 0.85 0.71 0.45 1.06 0.62 1.20 0.71 0.37 0.35 0.29 0.29 0.33 0.19 0.27 0.28 0.48 0.27 0.27 0.40 1.12 1.87 1.20 1.49 1.62 1.66 0.84 1.13 1.73 1.81 2.61 1.92 2.13 2.06
0.43 0.81 0.51 0.41 0.24 0.53 0.98 1.76 3.09 2.77 2.82 3.07 2.64 1.93 2.26 2.52 2.77 1.94 2.81 1.70 0.86 1.17 0.72 0.64 0.47 0.49 0.52 0.51 0.70 0.87 1.55 2.41 3.05 3.66 2.59 3.54 3.10 3.58 2.44 1.40 0.46 0.31 0.35 0.19 0.28 0.40 0.38 0.47 0.48 0.49 0.47 0.45 0.48 0.68 0.77 0.97 1.74 1.50 1.70 1.68 1.80 1.67 1.28 1.19 0.93 0.74 0.45 0.79 0.98 0.72 0.69 0.43 0.33 0.24 0.26 0.31 0.34 0.18 0.22 0.18 0.43 0.39 0.29 0.48 0.95 1.71 1.31 1.24 1.27 1.49 2.27 2.01 2.42 2.68 3.50 2.63 1.42
0.09 0.12 0.25 0.54 0.46 0.44 1.34 1.41 1.88 1.98 2.95 2.95 2.60 2.52 2.65 2.00 2.17 2.46 2.65 1.35 1.10 0.72 0.59 0.50 0.32 0.14 0.22 0.62 0.99 1.45 1.43 1.65 2.82 2.10 2.35 3.30 2.82 2.42 1.53 1.33 0.63 0.18 0.59 0.66 0.40 0.51 0.44 0.54 0.64 0.41 0.35 0.61 0.55 0.78 0.71 1.18 1.73 1.43 1.30 1.30 1.14 1.24 1.03 1.25 0.83 0.64 0.73 0.47 0.77 0.81 0.51 0.31 0.25 0.14 0.13 0.14 0.30 0.16 0.23 0.29 0.28 0.27 0.38 0.38 0.59 1.07 1.15 1.30 1.23 0.90 1.25 2.01 2.09 2.04 2.10 2.36 1.33
0.01 0.06 0.17 0.35 0.64 0.81 0.76 1.47 1.44 2.18 3.09 2.81 3.05 2.57 2.38 2.49 1.74 3.44 1.43 1.29 1.01 0.68 0.62 0.62 0.53 0.50 0.36 0.45 0.63 1.28 1.91 2.73 2.84 4.42 3.28 2.81 3.19 2.64 2.82 1.32 0.93 0.66 0.57 0.35 0.54 0.35 0.32 0.37 0.36 0.56 0.39 0.36 0.49 0.54 0.47 0.84 1.34 1.32 1.38 1.28 1.40 1.08 1.03 1.23 1.32 0.87 0.78 0.71 0.59 0.56 0.47 0.24 0.20 0.13 0.19 0.21 0.20 0.08 0.17 0.31 0.21 0.44 0.39 0.37 0.32 0.33 0.89 0.96 0.63 1.06 1.00 1.20 1.90 1.43 1.93 1.68 1.75
0.04 0.26 0.16 0.34 0.84 1.16 1.09 1.26 1.53 2.13 3.31 3.39 2.72 3.11 2.50 2.44 1.51 3.42 1.72 0.86 1.09 1.07 0.72 0.51 1.23 0.90 0.47 0.45 0.62 1.53 1.76 2.21 2.23 2.57 2.13 2.06 2.42 2.41 2.15 1.57 1.29 1.34 1.40 0.81 0.64 0.20 0.24 0.26 0.58 0.89 0.43 0.26 0.25 0.42 0.75 0.50 0.61 1.04 1.13 0.83 0.94 0.74 1.15 1.25 0.74 0.91 0.86 0.51 0.45 0.80 0.44 0.21 0.23 0.24 0.16 0.20 0.14 0.17 0.20 0.27 0.45 0.71 0.81 0.32 0.34 0.43 0.47 1.40 0.94 0.84 0.44 0.71 0.95 1.37 2.17 1.61 2.23
0.32 0.22 0.97 0.65 0.65 1.13 1.29 1.44 2.32 1.73 2.54 3.61 3.93 3.34 2.80 1.70 2.43 1.67 0.91 1.05 1.55 1.26 1.07 1.13 0.54 0.79 0.38 0.40 0.62 1.11 1.35 1.71 1.71 1.93 2.00 2.72 3.40 3.07 2.04 1.86 2.35 1.95 1.87 1.90 0.96 0.30 0.32 0.56 1.04 1.05 0.63 0.37 0.33 0.44 0.54 0.37 0.54 0.77 0.54 0.78 0.96 0.76 1.15 0.84 0.76 1.02 0.46 0.89 0.58 0.45 0.33 0.30 0.12 0.13 0.10 0.15 0.20 0.29 0.28 0.41 0.44 0.66 0.57 0.44 0.40 0.55 0.32 0.33 0.26 0.64 1.29 1.34 1.53 1.33 1.56 1.57 2.38
0.16 0.60 1.09 0.67 1.03 1.55 1.32 1.76 2.24 1.62 2.21 2.28 3.21 3.85 2.91 2.72 1.98 1.39 1.08 1.53 1.45 1.59 1.73 1.08 0.91 0.66 0.80 0.66 0.57 1.04 1.08 1.66 1.35 2.25 1.95 1.50 2.24 2.78 2.73 2.42 2.00 2.44 2.33 1.96 0.95 0.60 0.56 0.88 0.90 1.31 1.13 1.04 0.83 0.97 1.46 0.85 0.88 0.69 0.91 0.72 0.98 0.68 0.82 1.00 0.67 0.47 0.36 0.45 0.55 0.52 0.29 0.16 0.24 0.23 0.21 0.23 0.34 0.31 0.36 0.30 0.66 0.47 0.40 0.76 0.81 0.91 0.72 0.53 0.47 0.74 1.06 0.94 1.20 1.62 1.77 1.64 1.95
0.37 1.01 0.54 1.51 1.10 2.08 0.76 1.41 1.95 2.41 2.17 2.77 1.39 3.60 4.00 2.88 1.68 1.63 1.68 1.59 1.57 1.48 1.44 1.11 1.44 1.28 0.96 0.70 0.74 1.02 1.12 1.43 1.57 2.49 2.15 2.06 2.75 1.98 1.93 2.19 2.44 2.48 1.57 1.66 0.75 0.78 0.92 1.19 1.90 1.61 1.13 1.24 0.73 0.91 1.34 1.01 1.51 1.22 1.24 1.10 1.05 0.90 0.80 1.02 0.86 1.55 0.50 0.49 0.40 0.41 0.44 0.59 0.49 0.31 0.54 0.27 0.26 0.20 0.33 0.47 0.55 0.56 0.53 0.72 0.67 0.65 1.15 0.85 0.49 0.44 0.93 1.24 1.52 1.19 1.35 1.88 1.41
0.33 0.38 0.87 0.54 0.35 1.87 1.16 0.85 0.80 1.79 1.55 1.83 1.24 2.98 3.03 2.58 2.52 1.32 1.18 1.65 2.35 2.13 1.45 1.49 1.17 0.91 1.47 1.72 0.94 1.09 1.18 0.87 1.20 1.83 1.95 1.54 2.01 1.66 1.96 1.97 2.43 3.19 2.75 1.79 1.30 1.11 1.10 1.34 1.30 1.03 2.05 1.35 1.03 0.96 0.97 1.10 1.10 0.82 1.01 1.03 1.31 1.43 1.13 1.11 0.88 0.81 0.61 0.47 0.80 0.84 0.77 0.77 0.73 0.71 0.63 0.57 0.28 0.42 0.37 0.46 0.79 1.02 0.58 0.88 0.56 0.71 1.12 0.82 0.65 0.42 0.46 0.83 0.68 1.16 1.52 1.38 1.41
0.47 0.14 0.29 0.32 0.44 1.03 1.38 0.72 0.97 1.40 0.84 1.59 1.73 3.02 2.50 3.10 2.54 2.14 1.64 1.99 1.92 2.21 1.65 1.08 0.97 0.97 1.06 0.94 1.26 0.69 0.86 1.12 1.31 1.38 1.43 1.63 1.79 1.52 1.53 2.27 2.22 2.69 2.43 2.25 1.31 1.47 1.29 1.32 1.09 1.04 1.30 0.89 1.07 1.20 1.61 1.07 1.33 0.97 1.34 0.98 1.00 1.50 1.45 1.14 0.94 0.63 0.24 0.86 1.50 1.22 1.14 1.22 0.78 0.68 1.08 0.70 0.55 0.58 0.47 0.55 0.59 0.70 1.12 0.86 0.64 0.81 0.99 1.07 1.19 1.45 1.06 1.29 0.82 1.03 0.76 0.74 1.23
0.13 0.08 0.15 0.16 0.37 0.37 1.21 0.81 1.25 1.11 0.82 1.91 1.41 2.05 2.47 1.86 1.59 1.70 1.48 1.71 1.84 2.35 1.86 1.29 0.98 1.20 0.60 1.11 0.46 0.61 0.63 1.18 0.70 1.28 1.31 1.04 1.81 1.77 2.27 1.73 2.21 2.09 2.01 1.49 1.77 1.71 2.06 1.42 0.90 1.44 2.04 2.09 2.01 2.43 2.29 1.89 2.22 2.25 2.04 1.73 1.65 1.80 1.35 0.73 1.05 0.83 0.74 0.76 0.76 0.78 0.70 1.05 1.24 1.07 1.01 0.95 0.68 0.35 0.59 0.72 0.55 0.67 0.43 0.54 0.73 0.69 0.71 0.97 1.01 1.73 1.47 1.26 1.10 1.03 0.97 0.58 1.21
0.05 0.07 0.12 0.37 0.54 0.32 0.92 0.72 0.85 0.68 0.78 1.03 1.11 1.40 2.50 2.13 1.64 1.20 1.10 1.32 1.69 1.59 1.83 1.75 1.17 0.87 0.53 1.20 1.25 1.35 1.32 0.83 0.82 1.29 1.17 1.40 2.23 1.85 1.49 1.49 1.69 1.66 1.89 2.11 1.40 1.57 2.09 3.27 2.48 1.80 1.92 3.18 3.37 3.31 2.35 2.46 2.67 2.41 2.13 1.93 1.91 1.78 1.29 0.98 1.63 1.20 0.68 0.53 0.89 1.32 1.32 1.34 0.91 1.15 1.11 1.50 0.99 0.42 0.34 0.33 0.35 0.53 0.70 0.55 0.65 1.22 1.36 1.33 1.20 1.13 1.20 1.25 0.82 1.11 0.69 0.81 1.07
0.02 0.03 0.19 0.15 0.32 0.87 0.60 0.61 0.25 0.17 0.70 1.37 1.07 1.48 2.17 1.93 1.69 1.48 1.50 1.04 1.49 2.58 1.99 2.10 1.09 1.15 0.61 0.86 1.19 0.69 1.26 1.07 0.78 1.02 0.97 1.59 1.34 1.59 1.46 1.52 1.37 1.65 2.45 2.45 1.69 1.31 1.42 2.03 2.33 2.41 1.98 3.01 2.79 3.34 3.02 2.35 2.22 1.98 1.73 1.89 1.77 1.80 1.60 1.46 1.44 1.20 0.94 0.94 0.94 1.05 1.49 1.61 1.42 1.18 0.83 1.32 1.24 0.48 0.70 0.58 0.40 0.35 0.42 0.57 0.79 0.96 0.79 1.13 1.15 1.08 0.92 0.81 0.72 0.63 0.59 0.85 0.81
0.01 0.00 0.07 0.27 0.44 0.35 0.47 0.56 0.34 0.50 0.83 1.10 1.09 0.96 1.47 2.00 1.45 1.49 1.28 1.27 2.14 2.37 1.45 1.59 1.42 1.19 0.93 0.84 0.84 0.89 0.87 1.27 0.68 1.52 1.06 1.87 2.50 2.76 2.57 2.09 2.30 1.97 1.63 1.93 1.99 1.48 1.65 1.86 1.78 1.38 1.58 2.00 1.65 1.77 1.44 1.67 1.40 1.37 1.23 1.11 1.66 1.69 1.32 1.80 1.21 1.27 0.97 0.59 0.52 0.90 1.19 1.32 1.56 1.29 1.02 1.26 1.44 1.18 1.00 1.16 0.97 0.85 0.64 0.61 0.50 0.74 0.84 0.91 0.60 0.78 0.82 0.83 1.00 0.45 0.57 0.64 0.70
0.01 0.03 0.11 0.49 0.21 0.57 0.55 0.56 0.87 1.21 1.38 1.79 0.70 1.27 1.29 1.89 2.11 1.50 1.92 1.70 1.60 2.10 2.45 1.74 1.44 0.97 0.98 1.41 0.90 1.24 1.27 1.31 1.01 0.77 0.89 1.25 1.53 2.15 2.39 1.77 2.36 2.06 1.82 2.08 1.80 2.11 2.11 1.64 1.96 1.37 1.71 1.77 1.65 1.43 1.18 1.26 1.40 1.36 1.82 1.52 1.32 1.22 1.12 1.49 1.00 1.10 1.06 1.00 0.85 0.98 1.13 1.36 1.43 1.58 1.00 1.36 1.55 1.19 0.89 0.74 0.87 0.84 0.55 0.78 0.47 0.88 0.96 0.64 0.78 1.05 0.60 0.66 0.61 0.48 0.31 0.29 0.81
0.00 0.03 0.28 0.25 0.54 0.56 0.49 0.54 0.52 1.92 1.18 1.94 1.23 1.42 1.37 1.62 2.09 2.54 1.40 1.00 0.94 1.23 1.84 2.66 1.59 1.71 1.09 1.11 1.18 1.95 1.08 1.74 1.09 0.94 0.63 1.11 0.88 1.05 1.81 1.59 1.28 1.45 3.17 2.64 3.01 3.52 2.53 2.07 1.97 2.21 1.93 1.84 2.22 1.92 1.91 1.71 1.67 2.01 1.78 2.01 1.58 2.26 1.60 1.31 1.23 1.57 1.68 1.11 0.94 0.79 0.57 1.07 1.10 1.06 0.88 1.06 1.65 1.09 0.95 1.06 0.87 0.82 0.76 0.54 0.44 0.57 0.76 0.85 0.81 0.86 0.60 0.52 0.49 0.39 0.37 0.29 0.68
0.00 0.04 0.04 0.21 0.16 0.22 0.73 0.70 0.21 0.80 0.50 0.91 1.11 1.41 2.04 2.49 2.37 2.09 2.16 1.10 1.82 1.29 1.74 2.74 2.91 2.94 1.07 0.62 1.12 0.93 1.22 1.64 1.42 1.13 1.08 0.64 0.57 0.77 0.63 0.89 1.15 1.52 1.51 1.95 2.91 2.10 1.58 1.55 1.71 1.89 1.65 1.49 1.43 1.18 1.11 2.41 1.90 1.71 1.72 1.87 1.70 1.99 1.84 1.50 1.36 1.27 1.01 0.72 0.54 0.37 0.43 0.48 0.47 0.59 0.62 0.56 1.06 0.86 0.97 0.95 0.77 0.78 0.69 0.67 0.60 0.49 0.33 0.30 0.60 0.75 0.53 0.54 0.46 0.34 0.26 0.36 0.29
0.00 0.01 0.02 0.05 0.05 0.12 0.04 0.49 0.34 0.75 0.60 0.53 1.42 1.17 2.66 2.39 2.20 2.06 2.21 1.95 2.10 1.74 1.64 1.99 1.95 2.19 1.27 1.63 1.35 1.34 1.52 1.89 1.20 1.34 1.05 1.21 0.65 0.45 0.74 0.90 0.65 1.01 1.41 1.82 2.33 2.13 1.62 1.16 1.21 1.63 2.24 1.46 2.08 1.98 1.90 1.76 1.56 1.69 1.76 2.08 2.26 1.93 1.60 0.90 1.12 0.79 0.54 0.41 0.41 0.46 0.52 0.44 0.49 0.44 0.52 0.44 0.60 0.73 0.66 0.81 0.72 0.71 0.62 0.70 0.64 0.53 0.35 0.37 0.55 0.42 0.39 0.50 0.56 0.62 0.38 0.41 0.66
0.00 0.00 0.00 0.00 0.01 0.23 0.02 0.13 0.33 0.38 0.81 0.68 0.60 1.08 1.60 1.82 1.38 1.18 1.45 1.72 1.83 1.29 1.04 1.18 1.75 2.41 2.49 1.68 1.25 1.33 1.36 2.00 1.31 0.98 1.00 0.56 0.49 0.68 0.96 0.88 0.73 0.90 0.95 1.68 2.80 2.52 1.70 1.35 1.17 1.71 1.52 1.47 1.52 1.62 1.41 1.71 1.48 1.07 1.00 1.77 1.71 1.31 1.20 0.62 0.59 0.36 0.44 0.39 0.60 0.53 1.09 0.63 0.48 0.68 0.59 0.59 0.80 0.62 0.70 0.61 0.98 1.19 0.52 0.35 0.35 0.39 0.24 0.28 0.31 0.40 0.57 0.40 0.49 0.63 0.34 0.21 0.29
0.00 0.01 0.00 0.00 0.00 0.02 0.12 0.57 1.05 0.24 0.43 1.11 0.46 0.66 1.38 0.92 1.61 1.17 1.00 0.98 1.11 1.80 1.35 1.09 1.53 1.76 1.68 1.69 1.82 1.03 1.46 1.92 1.30 1.28 0.74 0.85 0.33 0.46 0.56 1.15 0.77 0.94 1.07 2.09 1.89 1.57 1.12 1.73 1.38 1.30 1.63 1.63 1.69 1.80 1.72 1.16 1.82 1.75 1.26 0.94 1.25 1.26 0.70 0.66 0.63 0.78 0.67 0.69 0.70 0.84 0.75 0.98 0.63 0.63 0.71 0.79 0.46 0.53 0.59 0.73 0.56 0.47 0.61 0.63 0.41 0.43 0.43 0.42 0.37 0.55 0.37 0.34 0.30 0.53 0.44 0.16 0.11
0.00 0.00 0.00 0.01 0.00 0.05 0.17 0.16 0.20 0.14 0.02 0.53 0.26 0.26 0.49 0.89 0.98 0.63 0.76 0.65 0.70 1.05 1.13 1.33 1.63 1.62 1.63 1.57 1.06 1.19 0.91 0.75 1.08 1.19 1.12 0.45 0.39 0.45 1.09 0.82 0.88 1.30 1.71 1.43 1.15 1.57 1.41 1.63 1.25 0.86 0.76 1.25 1.32 1.19 1.11 1.42 1.27 1.39 1.31 1.45 0.79 0.58 0.62 0.91 1.43 1.27 0.82 0.78 0.83 0.41 0.74 0.83 0.50 0.74 0.84 0.73 0.56 1.01 0.62 0.60 0.53 0.47 0.50 0.34 0.43 0.24 0.33 0.34 0.52 0.46 0.61 0.61 0.30 0.39 0.29 0.20 0.20
0.01 0.00 0.01 0.01 0.00 0.01 0.01 0.01 0.05 0.05 0.22 0.50 0.37 0.37 0.65 0.58 0.67 0.56 0.81 1.20 0.95 0.66 0.89 0.71 1.35 1.09 1.44 1.49 1.06 0.86 0.56 0.65 1.12 0.87 0.88 0.44 0.57 0.68 0.71 0.71 1.11 1.98 1.79 1.26 1.41 1.04 1.04 1.40 1.15 1.19 1.20 1.65 1.78 1.51 1.56 1.35 1.28 1.36 0.93 0.63 0.72 0.66 0.97 0.68 1.09 0.89 0.86 0.78 0.82 0.60 0.61 0.59 0.44 0.48 0.29 0.38 0.36 0.53 0.72 0.59 0.52 0.49 0.41 0.29 0.30 0.28 0.24 0.28 0.31 0.39 0.51 0.39 0.37 0.20 0.31 0.17 0.20
0.00 0.00 0.00 0.02 0.00 0.01 0.06 0.03 0.17 0.32 0.11 0.29 0.47 0.20 0.37 0.78 0.73 1.16 1.30 0.82 0.89 1.00 1.13 0.98 0.93 1.22 1.04 1.17 0.80 0.93 0.57 0.80 0.61 1.08 0.96 0.85 0.59 0.84 0.92 0.91 1.52 1.96 1.16 1.09 1.27 1.08 1.40 1.23 1.04 1.06 2.42 1.98 1.52 1.47 1.46 1.79 1.47 1.66 1.12 0.72 0.81 0.74 0.94 1.04 0.80 0.94 1.08 1.19 0.84 0.60 0.64 0.83 0.60 0.48 0.41 0.45 0.48 0.49 0.66 0.59 0.59 0.41 0.30 0.23 0.37 0.34 0.31 0.40 0.28 0.26 0.20 0.24 0.31 0.28 0.15 0.15 0.15
0.00 0.00 0.02 0.06 0.00 0.02 0.01 0.02 0.13 0.23 0.23 0.28 0.15 0.15 0.05 0.63 0.99 1.43 1.50 0.88 0.42 0.54 0.87 1.13 1.28 1.21 0.99 0.70 1.28 0.68 0.57 0.65 0.79 0.82 1.05 1.28 1.08 1.64 1.42 1.38 1.46 1.81 1.48 1.73 1.31 1.29 1.80 1.33 0.98 2.28 2.47 1.78 1.70 1.60 1.49 1.82 1.49 1.34 1.44 1.07 0.77 0.78 0.85 1.30 1.31 0.85 1.67 1.23 0.88 0.58 0.56 0.61 0.45 0.47 0.73 0.48 0.46 0.28 0.19 0.28 0.34 0.38 0.37 0.30 0.18 0.33 0.30 0.33 0.27 0.24 0.31 0.26 0.17 0.17 0.13 0.15 0.10
0.00 0.00 0.03 0.01 0.06 0.08 0.64 0.88 0.62 0.26 0.19 0.08 0.13 0.04 0.02 0.51 1.18 0.67 0.60 0.49 0.57 0.60 0.85 0.77 0.67 0.72 0.60 0.88 1.50 0.48 0.64 0.58 0.63 0.78 1.26 1.36 1.68 1.69 1.48 1.94 2.03 2.35 2.05 1.38 1.06 1.03 1.17 1.66 1.61 2.24 2.23 1.62 1.58 1.12 1.12 1.11 1.31 1.22 1.22 1.27 1.02 1.10 1.23 1.25 1.86 1.41 1.11 1.00 0.84 0.95 1.12 1.19 0.78 0.55 0.61 0.72 0.43 0.23 0.28 0.46 0.54 0.65 0.63 0.51 0.57 0.25 0.35 0.28 0.51 0.20 0.46 0.41 0.23 0.28 0.22 0.39 0.33
0.00 0.00 0.02 0.08 0.67 0.36 0.51 0.48 0.53 0.27 0.21 0.27 0.03 0.02 0.31 0.30 0.76 0.68 0.48 0.41 0.59 0.64 0.52 0.41 0.42 0.42 0.30 0.52 0.58 0.46 0.38 0.34 0.34 0.60 0.93 1.12 1.34 1.15 0.69 1.15 1.54 1.75 0.99 0.86 1.52 1.60 1.08 1.44 1.49 1.52 1.94 2.23 1.78 2.08 1.38 1.30 1.08 0.89 1.53 1.11 1.18 1.26 1.40 1.18 1.71 1.25 1.36 1.21 0.94 1.09 1.11 0.81 0.70 0.66 0.25 0.44 0.30 0.43 0.33 0.55 0.32 0.34 0.61 0.55 0.62 0.79 0.84 0.55 0.31 0.47 0.56 0.27 0.59 0.43 0.31 0.32 0.27
0.01 0.02 0.06 0.05 0.19 0.56 0.11 0.20 0.09 0.09 0.09 0.08 0.17 0.20 0.26 0.73 0.77 0.49 0.65 0.38 0.45 0.40 0.38 0.29 0.41 0.29 0.25 0.41 0.72 0.71 0.51 0.46 0.53 0.69 1.01 0.84 0.88 0.95 0.90 0.75 0.75 1.04 1.43 1.46 1.98 1.57 1.46 1.66 1.32 1.24 1.68 2.14 1.54 1.67 1.50 1.44 1.41 1.03 0.98 1.30 1.17 1.40 1.30 1.79 1.74 1.11 1.02 1.22 0.93 0.93 0.80 0.66 0.61 0.43 0.25 0.22 0.52 0.36 0.32 0.53 0.74 0.29 0.31 0.33 0.49 0.64 0.50 0.53 0.60 0.93 0.43 0.35 0.35 0.82 0.73 0.81 0.66
0.03 0.04 0.01 0.08 0.02 0.12 0.13 0.08 0.17 0.17 0.37 0.25 0.09 0.10 0.71 0.41 2.65 0.64 0.30 0.39 0.62 0.66 0.63 0.29 0.19 0.30 0.15 0.19 0.20 0.44 0.79 1.00 0.62 0.69 1.20 0.84 0.70 1.11 1.36 1.08 1.18 0.90 1.16 1.32 1.84 1.87 1.45 1.73 1.48 1.46 1.39 1.95 1.43 1.40 2.16 1.46 0.82 1.57 1.24 1.23 1.36 1.63 1.28 1.85 1.52 1.33 1.21 1.46 1.21 0.64 0.69 0.71 0.49 0.40 0.17 0.26 0.38 0.33 0.17 0.54 0.37 0.42 0.26 0.26 0.51 0.50 0.30 0.24 0.36 0.49 0.46 0.43 0.96 0.89 0.68 0.58 0.72
0.00 0.01 0.00 0.02 0.08 0.00 0.07 0.09 0.06 0.13 0.25 0.18 0.34 0.45 0.63 1.08 0.43 0.84 0.32 0.18 0.38 0.45 0.79 0.51 0.29 0.39 0.26 0.25 0.17 0.15 0.22 0.94 0.98 0.85 1.49 1.33 1.41 1.10 1.41 1.31 0.73 0.91 0.86 0.83 1.32 1.48 1.02 1.20 1.58 1.65 1.12 1.10 1.19 1.50 1.35 1.28 1.09 0.92 1.28 1.67 1.32 1.98 1.94 1.87 1.54 1.37 1.29 1.11 1.14 0.97 0.69 0.58 0.33 0.32 0.20 0.10 0.08 0.10 0.22 0.17 0.26 0.19 0.24 0.33 0.61 0.63 0.54 0.30 0.41 0.38 0.31 0.46 0.59 1.13 1.04 0.52 0.46
0.13 0.02 0.03 0.03 0.00 0.00 0.02 0.03 0.01 0.07 0.08 0.15 0.09 0.21 0.61 0.70 0.53 0.41 0.95 0.62 0.50 0.38 0.53 0.73 0.48 0.63 0.54 0.30 0.74 0.39 0.38 0.71 1.70 1.37 1.46 1.65 2.20 1.84 1.34 1.33 1.12 1.28 1.14 1.07 1.45 1.38 1.29 1.33 1.44 1.43 1.29 1.72 1.23 1.18 1.23 1.76 1.34 1.20 0.93 1.10 1.57 1.43 1.91 1.99 2.00 1.77 1.32 1.62 1.29 1.01 0.71 0.43 0.49 0.48 0.35 0.15 0.11 0.08 0.14 0.19 0.14 0.15 0.34 0.27 0.31 0.41 0.25 0.36 0.34 0.41 0.24 0.33 0.39 0.49 0.41 0.45 0.73
0.02 0.03 0.14 0.01 0.00 0.00 0.01 0.16 0.14 0.13 0.21 0.60 0.12 0.51 0.83 0.33 1.87 0.42 0.57 0.87 0.84 0.53 1.09 0.89 0.47 0.66 0.78 0.81 0.25 0.34 0.68 0.69 1.55 1.77 2.75 2.79 2.80 2.16 1.92 1.63 1.08 1.30 1.23 1.08 1.11 1.50 1.56 1.44 1.44 1.97 1.66 0.89 1.78 1.17 1.08 1.29 1.32 1.05 1.21 1.65 1.58 1.72 1.75 2.20 2.00 1.61 1.81 1.47 1.18 0.79 0.72 0.92 0.45 0.36 0.18 0.25 0.19 0.13 0.25 0.16 0.22 0.24 0.20 0.34 0.38 0.28 0.22 0.17 0.36 0.44 0.37 0.39 0.44 0.44 0.61 0.67 0.55
0.00 0.01 0.01 0.03 0.24 0.09 0.04 0.00 0.09 0.16 0.25 0.33 0.21 0.30 0.43 0.43 1.01 0.63 0.52 0.60 0.50 0.69 0.44 0.62 0.56 0.63 0.88 0.97 1.17 0.93 0.85 0.66 0.69 1.26 1.94 1.74 2.01 2.82 2.32 2.18 1.65 1.55 1.92 2.05 1.38 1.14 1.25 1.73 2.19 2.33 2.40 1.86 1.85 2.28 1.33 1.28 1.45 1.28 1.15 1.35 1.51 1.48 1.26 1.51 1.57 1.80 1.55 1.18 0.90 0.70 0.62 0.58 0.42 0.31 0.24 0.22 0.25 0.33 0.31 0.18 0.30 0.62 0.58 0.27 0.26 0.28 0.44 0.37 0.55 0.64 0.54 0.47 0.44 0.56 0.75 0.64 0.41
0.00 0.00 0.04 0.00 0.01 0.05 0.21 0.11 0.33 0.02 0.31 0.06 0.84 0.59 1.13 0.79 0.97 0.46 1.02 0.54 0.65 0.40 0.36 0.49 0.47 0.70 0.52 0.98 0.80 0.64 0.50 0.56 0.95 1.51 2.18 2.18 1.92 2.10 1.96 1.88 1.68 1.92 2.02 1.08 1.24 1.71 1.10 1.87 1.90 2.11 2.36 2.18 2.51 2.24 1.93 1.51 1.15 1.27 1.05 1.27 1.37 1.52 1.40 1.45 1.58 1.58 1.41 0.93 0.83 1.00 0.60 0.56 0.37 0.32 0.27 0.27 0.39 0.71 1.30 0.78 0.95 0.69 0.64 0.37 0.50 0.64 0.96 0.89 0.72 0.69 0.52 0.42 0.51 0.58 0.48 0.48 0.51
0.04 0.01 0.03 0.03 0.01 0.06 0.03 0.04 0.05 0.17 0.32 0.13 0.34 0.85 1.34 1.10 1.38 1.15 1.06 0.99 1.00 0.92 0.51 0.62 0.43 0.54 0.59 0.72 0.94 0.51 0.39 0.41 0.32 0.85 1.35 1.52 1.58 1.67 1.78 1.15 1.26 1.77 2.14 2.06 2.12 1.12 1.25 1.56 1.96 1.86 1.87 1.35 2.03 2.03 1.97 1.79 2.27 1.91 1.76 1.15 1.36 1.65 1.49 1.24 1.41 1.23 1.32 0.96 1.11 0.79 0.62 0.59 1.20 0.42 0.54 0.73 0.60 0.87 0.90 0.93 0.63 0.50 0.49 0.47 0.95 0.73 0.68 0.58 0.77 1.00 0.65 0.37 0.40 0.71 0.70 0.54 0.45
0.06 0.12 0.25 0.06 0.10 0.15 0.09 0.36 0.01 0.03 0.05 0.12 0.21 0.78 0.76 0.88 0.41 0.82 0.68 0.92 0.99 0.49 0.46 0.47 0.51 0.43 0.58 0.64 0.87 0.77 0.53 0.30 0.22 0.28 0.37 0.84 0.97 1.18 1.10 1.53 1.49 1.98 1.56 2.13 1.30 1.14 1.69 1.69 1.71 1.51 1.66 2.02 2.23 1.81 2.27 3.15 2.40 2.68 2.41 1.73 1.33 1.61 1.99 1.93 1.76 1.63 1.21 1.04 0.91 0.89 0.78 0.80 0.65 0.94 1.12 0.71 0.43 0.26 0.41 0.48 0.66 0.60 0.61 1.15 1.02 0.82 0.98 0.68 0.79 1.00 0.86 0.52 0.44 0.61 0.56 0.37 0.37